Location: Northern Prairie Star Party
(53.2167°N, 112.5333°W)
Time: 16:35:02
(UTC-06:00)

Amateur Radio Satellites - All Passes

Search period start: 24 September 2016 16:05
Search period end: 25 September 2016 16:05
Location: Northern Prairie Star Party, 53.2167°N, 112.5333°W

Satellite Date Start Highest point End Downlink Frequencies (MHz)
Time Altitude Azimuth
Cosmos 2504 24 Sep 16:09:55 16:17:13 76° 77° (ENE) 16:24:53 435.465 / 435.565
PCSat 24 Sep 16:13:52 16:17:54 21° 251° (WSW) 16:21:54 145.827
TISAT 1 24 Sep 16:32:39 16:35:44 21° 301° (WNW) 16:38:50 437.305
ITUPSAT 1 24 Sep 16:34:11 16:39:02 83° 288° (WNW) 16:43:51 437.325
KKS-1 24 Sep 16:42:21 16:45:40 20° 91° (E) 16:48:56 437.445
YUBILEINY 24 Sep 16:44:09 16:51:57 39° 277° (W) 16:59:44 435.215
Cosmos 2491 24 Sep 16:44:17 16:53:07 84° 281° (WNW) 17:02:02 435.465 / 435.565
SWISSCUBE 24 Sep 16:49:32 16:54:16 57° 292° (WNW) 16:58:57 437.505
NOAA 15 24 Sep 16:55:52 16:59:40 20° 52° (NE) 17:03:30 137.62
Cubesat XI-IV 24 Sep 16:58:40 17:02:11 18° 51° (NE) 17:05:42 437.490
CUTE-I 24 Sep 16:59:59 17:03:34 19° 51° (NE) 17:07:09 437.470
BEESAT 24 Sep 17:03:02 17:07:40 48° 293° (WNW) 17:12:15 436.000
SO-50 24 Sep 17:05:22 17:09:43 34° 121° (ESE) 17:14:01 436.795
HORYU 2 24 Sep 17:06:17 17:10:34 51° 68° (ENE) 17:14:53 437.375
ITAMSAT 1 24 Sep 17:08:20 17:11:31 16° 273° (W) 17:14:43 435.822/435.867
NOAA 18 24 Sep 17:08:47 17:12:37 20° 51° (NE) 17:16:28 137.9125
AO-7 24 Sep 17:09:02 17:16:43 40° 263° (W) 17:24:27 29.400- 29.500
O/OREOS (USA 219) 24 Sep 17:10:44 17:15:01 35° 49° (NE) 17:19:15 437.305
GONETS M04 24 Sep 17:13:07 17:14:57 11° 24° (NNE) 17:16:47
BRITE-PL 24 Sep 17:16:44 17:22:05 43° 65° (ENE) 17:27:20 437.365/2234.400
AIST 1 24 Sep 17:23:05 17:27:26 76° 77° (ENE) 17:31:43
MOZHAYETS 4 24 Sep 17:25:23 17:30:02 71° 102° (ESE) 17:34:40
STARS 24 Sep 17:26:15 17:29:57 26° 94° (E) 17:33:37 437.465
GOMX 1 24 Sep 17:26:37 17:31:04 27° 61° (ENE) 17:35:21 467.674
Cosmos 2504 24 Sep 18:04:05 18:09:56 27° 279° (W) 18:16:02 435.465 / 435.565
DOVE 4 24 Sep 18:07:20 18:11:30 27° 62° (ENE) 18:15:28 437.250
ITUPSAT 1 24 Sep 18:13:10 18:16:12 17° 308° (NW) 18:19:13 437.325
CINEMA 3 24 Sep 18:13:37 18:13:59 10° 51° (NE) 18:14:21 145.822/145.860
KKS-1 24 Sep 18:18:14 18:22:38 61° 290° (WNW) 18:26:59 437.445
LilacSat-2 24 Sep 18:18:48 18:22:26 49° 70° (ENE) 18:26:07 437.200
HO-68 24 Sep 18:21:31 18:27:10 26° 47° (NE) 18:32:49 435.675
SWISSCUBE 24 Sep 18:29:13 18:31:07 12° 312° (NW) 18:33:02 437.505
NOAA 15 24 Sep 18:33:30 18:38:49 90° 72° (ENE) 18:44:12 137.62
CUBESAT XI-V 24 Sep 18:34:56 18:39:35 54° 100° (E) 18:44:11 437.345
Cubesat XI-IV 24 Sep 18:36:12 18:41:31 79° 71° (ENE) 18:46:52 437.490
CUTE-I 24 Sep 18:37:35 18:42:54 81° 72° (ENE) 18:48:15 437.470
BEESAT 24 Sep 18:43:19 18:44:23 11° 314° (NW) 18:45:29 436.000
HORYU 2 24 Sep 18:43:51 18:47:25 23° 267° (W) 18:50:59 437.375
Cosmos 2491 24 Sep 18:44:17 18:51:28 27° 307° (NW) 18:58:43 435.465 / 435.565
SO-50 24 Sep 18:45:19 18:50:03 56° 321° (NW) 18:54:45 436.795
NOAA 18 24 Sep 18:47:06 18:52:35 84° 72° (ENE) 18:58:06 137.9125
O/OREOS (USA 219) 24 Sep 18:50:10 18:54:31 42° 250° (WSW) 18:58:51 437.305
BRITE-PL 24 Sep 18:55:12 19:00:34 41° 264° (W) 19:05:53 437.365/2234.400
AIST 1 24 Sep 19:02:03 19:04:26 15° 278° (W) 19:06:48
STARS 24 Sep 19:02:19 19:06:30 45° 293° (WNW) 19:10:39 437.465
MOZHAYETS 4 24 Sep 19:03:19 19:06:46 21° 303° (WNW) 19:10:13
GOMX 1 24 Sep 19:03:29 19:08:51 62° 259° (W) 19:13:59 467.674
GONETS M04 24 Sep 19:08:13 19:15:48 30° 56° (NE) 19:23:17
COMPASS 1 24 Sep 19:18:33 19:20:53 15° 55° (NE) 19:23:12 437.405
CUTE 1.7 + AOD 2 24 Sep 19:30:02 19:33:44 30° 64° (ENE) 19:37:29 437.475
CANX-2 24 Sep 19:30:22 19:34:12 34° 65° (ENE) 19:38:03 2200.000
Cosmos 2499 24 Sep 19:31:22 19:37:38 30° 60° (ENE) 19:44:12 435.465 / 435.565
SEEDS 24 Sep 19:38:32 19:42:06 27° 63° (ENE) 19:45:41 437.485
CUBEBUG 2 24 Sep 19:43:04 19:45:59 19° 59° (ENE) 19:48:54 437.445
DOVE 4 24 Sep 19:44:02 19:48:58 55° 260° (W) 19:53:40 437.250
CINEMA 3 24 Sep 19:45:55 19:50:18 55° 70° (ENE) 19:54:31 145.822/145.860
STRAND 1 24 Sep 19:46:27 19:50:05 19° 88° (E) 19:53:43 437.568
LilacSat-2 24 Sep 19:54:19 19:57:01 19° 269° (W) 19:59:45 437.200
KKS-1 24 Sep 19:56:45 19:58:21 12° 310° (NW) 19:59:56 437.445
CUSAT 1 24 Sep 19:57:06 20:03:01 43° 89° (E) 20:10:06 437.405
RS-15 24 Sep 20:01:04 20:09:41 25° 99° (E) 20:18:33 29.354- 29.394
HO-68 24 Sep 20:06:52 20:14:03 84° 69° (ENE) 20:21:16 435.675
FUNcube-1 24 Sep 20:07:26 20:09:42 15° 55° (NE) 20:12:00 145.935
UWE-3 24 Sep 20:08:36 20:11:47 22° 60° (ENE) 20:14:59 435.000/436.395/437.385
AAUSAT CUBESAT 2 24 Sep 20:11:38 20:15:19 32° 65° (ENE) 20:19:03 437.432
CUBESAT XI-V 24 Sep 20:12:47 20:16:43 26° 300° (WNW) 20:20:36 437.345
NOAA 15 24 Sep 20:15:54 20:19:21 17° 273° (W) 20:22:51 137.62
Cubesat XI-IV 24 Sep 20:18:24 20:22:14 20° 272° (W) 20:26:06 437.490
CUTE-I 24 Sep 20:19:52 20:23:37 19° 272° (W) 20:27:23 437.470
SO-50 24 Sep 20:27:33 20:31:26 24° 344° (NNW) 20:35:17 436.795
NOAA 18 24 Sep 20:30:06 20:33:57 19° 271° (W) 20:37:49 137.9125
DELFI C3 24 Sep 20:30:32 20:31:51 11° 53° (NE) 20:33:09 145.870
ZACube-1 24 Sep 20:45:41 20:49:18 30° 64° (ENE) 20:52:58 437.345
GOMX 1 24 Sep 20:46:07 20:47:52 11° 278° (W) 20:49:37 467.674
Oscar 11 24 Sep 20:50:23 20:54:16 34° 65° (ENE) 20:58:12 145.826/435.025
COMPASS 1 24 Sep 20:51:38 20:55:49 88° 75° (ENE) 21:00:03 437.405
DANDE 24 Sep 20:53:27 20:58:22 43° 89° (E) 21:04:47 436.750
GONETS M04 24 Sep 21:04:58 21:13:52 87° 261° (W) 21:22:39
CUTE 1.7 + AOD 2 24 Sep 21:05:33 21:09:30 38° 263° (W) 21:13:31 437.475
CANX-2 24 Sep 21:06:13 21:10:03 33° 265° (W) 21:13:58 2200.000
SEEDS 24 Sep 21:13:38 21:17:39 42° 262° (W) 21:21:43 437.485
CUBEBUG 2 24 Sep 21:18:02 21:22:14 66° 257° (WSW) 21:26:24 437.445
Cosmos 2499 24 Sep 21:24:11 21:31:31 77° 263° (W) 21:39:22 435.465 / 435.565
CINEMA 3 24 Sep 21:24:17 21:27:45 22° 268° (W) 21:31:08 145.822/145.860
STRAND 1 24 Sep 21:24:44 21:29:54 79° 288° (WNW) 21:35:03 437.568
PRISM 24 Sep 21:37:02 21:40:09 20° 91° (E) 21:43:13 437.425
HUMSAT D 24 Sep 21:37:57 21:41:16 24° 62° (ENE) 21:44:37 437.325/437.525
CUSAT 1 24 Sep 21:38:42 21:44:57 52° 294° (WNW) 21:52:30 437.405
FUNcube-1 24 Sep 21:41:14 21:45:23 89° 279° (W) 21:49:34 145.935
UWE-3 24 Sep 21:43:54 21:47:59 53° 260° (W) 21:52:04 435.000/436.395/437.385
AAUSAT CUBESAT 2 24 Sep 21:46:57 21:50:47 35° 264° (W) 21:54:39 437.432
HO-68 24 Sep 21:56:51 22:02:37 26° 271° (W) 22:08:26 435.675
DELFI C3 24 Sep 22:01:58 22:05:57 69° 72° (ENE) 22:09:58 145.870
RS-15 24 Sep 22:08:19 22:19:58 73° 125° (SE) 22:32:11 29.354- 29.394
SO-50 24 Sep 22:09:41 22:13:21 22° 9° (N) 22:16:57 436.795
ZACube-1 24 Sep 22:21:46 22:25:35 35° 264° (W) 22:29:25 437.345
Oscar 11 24 Sep 22:26:29 22:30:25 34° 264° (W) 22:34:23 145.826/435.025
AISAT 24 Sep 22:29:17 22:31:09 12° 51° (NE) 22:33:01 437.250
COMPASS 1 24 Sep 22:30:05 22:32:01 13° 274° (W) 22:33:57 437.405
UNISAT 6 24 Sep 22:34:58 22:37:09 13° 87° (E) 22:39:20 437.425
DANDE 24 Sep 22:36:05 22:41:13 42° 297° (WNW) 22:47:53 436.750
AO-85 24 Sep 22:45:51 22:50:25 34° 121° (ESE) 22:54:45 145.980
AUBIESAT-1 24 Sep 22:53:44 22:56:27 18° 53° (NE) 22:59:03 437.475
UKube-1 24 Sep 22:55:45 22:57:03 11° 50° (NE) 22:58:22 .
ESTCUBE 1 24 Sep 22:56:18 23:00:16 30° 62° (ENE) 23:04:16 437.505/2401.250
50 SAT 24 Sep 23:01:31 23:03:39 15° 58° (ENE) 23:05:48 437.505
GONETS M04 24 Sep 23:02:49 23:09:30 25° 285° (WNW) 23:16:08
STRAND 1 24 Sep 23:05:02 23:08:21 18° 309° (NW) 23:11:41 437.568
ANTELSAT 24 Sep 23:09:25 23:13:08 26° 94° (E) 23:16:53 437.575/2403.000
VELOX 1 24 Sep 23:11:06 23:14:41 24° 59° (ENE) 23:18:15 145.980
PRISM 24 Sep 23:11:41 23:15:47 55° 291° (WNW) 23:19:50 437.425
HUMSAT D 24 Sep 23:12:46 23:16:42 45° 261° (W) 23:20:41 437.325/437.525
DX 1 24 Sep 23:15:26 23:18:32 19° 56° (ENE) 23:21:37 434.975-435.025
Cosmos 2499 24 Sep 23:18:45 23:23:31 19° 284° (WNW) 23:28:29 435.465 / 435.565
FUNcube-1 24 Sep 23:20:41 23:22:18 12° 275° (W) 23:23:56 145.935
CUBEBUG 1 24 Sep 23:23:56 23:27:57 35° 64° (ENE) 23:31:59 437.445
CUSAT 1 24 Sep 23:24:38 23:29:06 17° 319° (NW) 23:33:57 437.405
M-CUBED/EXP-1 PRIME 24 Sep 23:26:41 23:30:31 39° 61° (ENE) 23:34:06 437.505
TIGRISAT 24 Sep 23:30:46 23:34:50 38° 97° (E) 23:38:58 435.000
DELFI C3 24 Sep 23:38:52 23:41:16 15° 272° (W) 23:43:40 145.870
ISS 24 Sep 23:42:25 23:45:23 32° 156° (SSE) 23:48:21 145.825
JAS-2 24 Sep 23:47:29 23:52:45 19° 80° (E) 23:57:58 435.910
QB50P2 24 Sep 23:48:48 23:50:16 12° 85° (E) 23:51:44 145.880/145.840
SO-50 24 Sep 23:50:28 23:54:57 42° 33° (NNE) 23:59:17 436.795
POLYITAN 1 24 Sep 23:51:03 23:52:31 12° 85° (E) 23:53:59 437.675
AISAT 25 Sep 00:02:24 00:06:50 65° 70° (ENE) 00:11:15 437.250
UNISAT 6 25 Sep 00:10:08 00:14:30 89° 284° (WNW) 00:18:56 437.425
TISAT 1 25 Sep 00:20:04 00:22:39 16° 56° (NE) 00:25:14 437.305
SPROUT 25 Sep 00:20:58 00:25:06 53° 70° (ENE) 00:29:17 437.525
RS-15 25 Sep 00:21:23 00:33:12 59° 334° (NNW) 00:45:27 29.354- 29.394
DANDE 25 Sep 00:23:29 00:26:25 13° 325° (NW) 00:29:38 436.750
AO-85 25 Sep 00:25:47 00:30:46 58° 320° (NW) 00:35:24 145.980
AUBIESAT-1 25 Sep 00:26:33 00:30:36 68° 250° (WSW) 00:34:22 437.475
UKube-1 25 Sep 00:27:59 00:32:15 59° 70° (ENE) 00:36:32 .
QB50P1 25 Sep 00:30:49 00:34:23 26° 94° (E) 00:37:56 145.935-145.965
DUCHIFAT 1 25 Sep 00:32:37 00:36:04 24° 93° (E) 00:39:31 145.980
ESTCUBE 1 25 Sep 00:32:39 00:36:58 42° 262° (W) 00:41:20 437.505/2401.250
50 SAT 25 Sep 00:33:05 00:36:43 69° 258° (WSW) 00:40:23 437.505
POPSAT HIP 1 25 Sep 00:43:50 00:47:41 33° 96° (E) 00:51:31 437.405
ANTELSAT 25 Sep 00:45:54 00:50:02 44° 293° (WNW) 00:54:14 437.575/2403.000
VELOX 1 25 Sep 00:46:29 00:50:52 55° 259° (W) 00:55:17 145.980
BUGSAT 1 25 Sep 00:49:51 00:52:24 16° 89° (E) 00:54:56 437.445
DX 1 25 Sep 00:49:53 00:54:16 73° 256° (WSW) 00:58:40 434.975-435.025
Cosmos 2491 25 Sep 00:50:23 00:57:06 23° 48° (NE) 01:03:45 435.465 / 435.565
SWISSCUBE 25 Sep 00:50:27 00:52:10 12° 47° (NE) 00:53:52 437.505
CUBEBUG 1 25 Sep 01:00:12 01:04:16 34° 264° (W) 01:08:19 437.445
M-CUBED/EXP-1 PRIME 25 Sep 01:01:35 01:05:08 27° 258° (WSW) 01:08:29 437.505
NANOSAT C BR1 25 Sep 01:02:28 01:06:33 48° 100° (E) 01:10:37 145.865
BEESAT 25 Sep 01:03:08 01:05:25 14° 49° (NE) 01:07:43 436.000
TIGRISAT 25 Sep 01:07:40 01:11:29 31° 296° (WNW) 01:15:20 435.000
ISS 25 Sep 01:18:21 01:21:37 65° 174° (S) 01:24:53 145.825
QB50P2 25 Sep 01:22:32 01:26:48 83° 107° (ESE) 01:31:01 145.880/145.840
POLYITAN 1 25 Sep 01:24:47 01:29:02 83° 106° (ESE) 01:33:15 437.675
SO-50 25 Sep 01:31:04 01:35:32 48° 235° (SW) 01:39:51 436.795
JAS-2 25 Sep 01:31:17 01:39:08 70° 102° (ESE) 01:46:54 435.910
AISAT 25 Sep 01:40:31 01:43:44 19° 270° (W) 01:46:57 437.250
UNISAT 6 25 Sep 01:48:06 01:50:39 15° 305° (NW) 01:53:13 437.425
TISAT 1 25 Sep 01:53:34 01:57:46 83° 254° (WSW) 02:01:59 437.305
SPROUT 25 Sep 01:58:03 02:01:22 22° 269° (W) 02:04:41 437.525
YUBILEINY 25 Sep 02:04:40 02:08:58 15° 67° (ENE) 02:13:15 435.215
UKube-1 25 Sep 02:05:26 02:08:40 20° 269° (W) 02:11:55 .
QB50P1 25 Sep 02:06:21 02:10:19 42° 293° (WNW) 02:14:17 145.935-145.965
DUCHIFAT 1 25 Sep 02:07:58 02:11:58 45° 292° (WNW) 02:15:58 145.980
AO-85 25 Sep 02:08:09 02:12:03 23° 342° (NNW) 02:15:44 145.980
ITUPSAT 1 25 Sep 02:09:41 02:14:05 38° 63° (ENE) 02:18:30 437.325
POPSAT HIP 1 25 Sep 02:19:41 02:23:28 33° 295° (WNW) 02:27:14 437.405
BEESAT 2 25 Sep 02:22:02 02:23:08 11° 110° (ESE) 02:24:14 435.950
BUGSAT 1 25 Sep 02:24:14 02:28:14 65° 289° (WNW) 02:32:12 437.445
SWISSCUBE 25 Sep 02:24:21 02:28:59 55° 68° (ENE) 02:33:40 437.505
DX 1 25 Sep 02:30:18 02:31:17 11° 275° (W) 02:32:15 434.975-435.025
RS-15 25 Sep 02:36:37 02:48:25 50° 7° (N) 03:00:22 29.354- 29.394
BEESAT 25 Sep 02:37:38 02:42:20 64° 70° (ENE) 02:47:05 436.000
NANOSAT C BR1 25 Sep 02:38:40 02:42:04 24° 299° (WNW) 02:45:27 145.865
Oscar 19 25 Sep 02:46:46 02:51:47 47° 99° (E) 02:56:44 437.125/150
Cosmos 2491 25 Sep 02:46:56 02:55:51 71° 75° (ENE) 03:04:39 435.465 / 435.565
ISS 25 Sep 02:54:45 02:57:58 51° 195° (SSW) 03:01:11 145.825
MOZHAYETS 4 25 Sep 02:57:23 03:00:57 23° 59° (ENE) 03:04:33
QB50P2 25 Sep 02:59:28 03:02:04 16° 304° (NW) 03:04:39 145.880/145.840
POLYITAN 1 25 Sep 03:01:43 03:04:18 16° 304° (NW) 03:06:53 437.675
BEESAT 3 25 Sep 03:07:47 03:11:32 46° 126° (SE) 03:15:21 437.485
Cosmos 2504 25 Sep 03:09:58 03:11:23 11° 68° (ENE) 03:12:48 435.465 / 435.565
AO-7 25 Sep 03:12:32 03:15:25 12° 78° (ENE) 03:18:17 29.400- 29.500
JAS-2 25 Sep 03:16:42 03:23:44 39° 303° (WNW) 03:30:47 435.910
Gurwin Techsat 1B 25 Sep 03:17:58 03:23:06 45° 99° (E) 03:28:11 435.225
TISAT 1 25 Sep 03:32:44 03:34:07 11° 274° (W) 03:35:31 437.305
ITAMSAT 1 25 Sep 03:33:11 03:37:06 21° 90° (E) 03:40:59 435.822/435.867
KKS-1 25 Sep 03:45:53 03:50:02 39° 65° (ENE) 03:54:12 437.445
ITUPSAT 1 25 Sep 03:47:34 03:51:57 36° 263° (W) 03:56:23 437.325
AO-85 25 Sep 03:50:33 03:53:55 20° 6° (N) 03:57:07 145.980
YUBILEINY 25 Sep 03:55:16 04:03:46 57° 91° (E) 04:12:16 435.215
BEESAT 2 25 Sep 03:56:15 04:00:12 69° 130° (SE) 04:04:12 435.950
BUGSAT 1 25 Sep 04:01:52 04:02:51 11° 308° (NW) 04:03:49 437.445
SWISSCUBE 25 Sep 04:03:12 04:07:06 25° 268° (W) 04:11:03 437.505
CUBESAT XI-V 25 Sep 04:08:36 04:11:53 19° 56° (NE) 04:15:11 437.345
BEESAT 25 Sep 04:16:57 04:20:34 21° 269° (W) 04:24:13 436.000
Oscar 19 25 Sep 04:26:22 04:30:59 33° 299° (WNW) 04:35:34 437.125/150
STARS 25 Sep 04:28:25 04:32:40 50° 68° (ENE) 04:36:55 437.465
ISS 25 Sep 04:31:38 04:33:59 18° 214° (SW) 04:36:21 145.825
MOZHAYETS 4 25 Sep 04:33:14 04:37:46 62° 259° (WSW) 04:42:21
CUSAT 1 25 Sep 04:42:07 04:47:28 19° 43° (NE) 04:52:38 437.405
Cosmos 2491 25 Sep 04:44:24 04:52:06 35° 279° (W) 04:59:44 435.465 / 435.565
BEESAT 3 25 Sep 04:45:42 04:49:20 35° 327° (NNW) 04:53:01 437.485
RS-15 25 Sep 04:50:40 05:03:05 74° 38° (NE) 05:15:24 29.354- 29.394
Cosmos 2504 25 Sep 04:55:55 05:02:59 51° 91° (E) 05:09:52 435.465 / 435.565
Gurwin Techsat 1B 25 Sep 04:58:09 05:02:59 36° 298° (WNW) 05:07:48 435.225
AO-7 25 Sep 05:02:19 05:10:23 51° 101° (E) 05:18:24 29.400- 29.500
JAS-2 25 Sep 05:03:05 05:06:46 14° 326° (NW) 05:10:31 435.910
ITAMSAT 1 25 Sep 05:11:54 05:17:08 74° 289° (WNW) 05:22:20 435.822/435.867
PCSat 25 Sep 05:18:50 05:22:44 20° 108° (ESE) 05:26:38 145.827
KKS-1 25 Sep 05:22:44 05:26:42 31° 265° (W) 05:30:41 437.445
AO-85 25 Sep 05:31:24 05:35:33 36° 31° (NNE) 05:39:23 145.980
STRAND 1 25 Sep 05:33:05 05:34:51 12° 45° (NE) 05:36:36 437.568
BEESAT 2 25 Sep 05:34:52 05:38:22 28° 332° (NNW) 05:41:53 435.950
DANDE 25 Sep 05:40:55 05:46:53 22° 48° (NE) 05:53:04 436.750
CUBESAT XI-V 25 Sep 05:44:01 05:48:44 81° 255° (WSW) 05:53:29 437.345
AIST 2 25 Sep 05:51:12 05:55:09 46° 125° (SE) 05:59:09 435.215
YUBILEINY 25 Sep 05:52:37 06:00:55 45° 295° (WNW) 06:09:15 435.215
AIST 1 25 Sep 05:58:53 06:02:46 32° 90° (E) 06:06:40
STARS 25 Sep 06:05:44 06:09:18 24° 267° (W) 06:12:52 437.465
CUSAT 1 25 Sep 06:23:37 06:31:30 54° 67° (ENE) 06:38:39 437.405
BEESAT 3 25 Sep 06:25:25 06:28:02 17° 350° (N) 06:30:39 437.485
HORYU 2 25 Sep 06:27:13 06:31:28 42° 99° (E) 06:35:41 437.375
NOAA 15 25 Sep 06:42:56 06:46:58 21° 90° (E) 06:50:59 137.62
Cubesat XI-IV 25 Sep 06:47:45 06:51:37 20° 88° (E) 06:55:29 437.490
CUTE-I 25 Sep 06:48:53 06:52:50 20° 89° (E) 06:56:47 437.470
Cosmos 2504 25 Sep 06:49:42 06:56:34 41° 294° (WNW) 07:03:19 435.465 / 435.565
ITAMSAT 1 25 Sep 06:52:34 06:55:49 17° 310° (NW) 06:59:04 435.822/435.867
BRITE-PL 25 Sep 06:53:53 06:58:51 48° 97° (E) 07:03:24 437.365/2234.400
AO-7 25 Sep 06:55:19 07:03:16 53° 304° (WNW) 07:11:11 29.400- 29.500
GOMX 1 25 Sep 06:59:51 07:03:41 25° 91° (E) 07:07:19 467.674
PCSat 25 Sep 07:00:02 07:05:28 89° 311° (NW) 07:10:57 145.827
NOAA 18 25 Sep 07:03:22 07:07:31 22° 90° (E) 07:11:38 137.9125
RS-15 25 Sep 07:03:37 07:15:16 51° 245° (WSW) 07:26:45 29.354- 29.394
STRAND 1 25 Sep 07:08:01 07:12:55 49° 66° (ENE) 07:17:52 437.568
AO-85 25 Sep 07:11:58 07:16:09 50° 234° (SW) 07:20:01 145.980
BEESAT 2 25 Sep 07:14:48 07:17:21 16° 355° (N) 07:19:54 435.950
LilacSat-2 25 Sep 07:20:09 07:23:36 31° 96° (E) 07:27:03 437.200
DANDE 25 Sep 07:23:13 07:31:18 63° 71° (ENE) 07:39:32 436.750
CUBESAT XI-V 25 Sep 07:24:41 07:26:54 13° 276° (W) 07:29:08 437.345
AIST 2 25 Sep 07:29:52 07:33:45 37° 327° (NNW) 07:37:40 435.215
HO-68 25 Sep 07:31:06 07:32:43 11° 78° (ENE) 07:34:21 435.675
O/OREOS (USA 219) 25 Sep 07:33:19 07:34:03 10° 96° (E) 07:34:47 437.305
AIST 1 25 Sep 07:36:18 07:40:20 35° 290° (WNW) 07:44:23
DOVE 4 25 Sep 07:37:07 07:40:42 25° 92° (E) 07:44:09 437.250
YUBILEINY 25 Sep 07:56:06 08:00:42 15° 323° (NW) 08:05:18 435.215
HORYU 2 25 Sep 08:04:03 08:07:55 30° 298° (WNW) 08:11:47 437.375
BEESAT 3 25 Sep 08:04:18 08:07:04 18° 14° (NNE) 08:09:50 437.485
CUSAT 1 25 Sep 08:05:56 08:13:30 47° 270° (W) 08:20:19 437.405
Cosmos 2499 25 Sep 08:19:32 08:23:29 16° 73° (ENE) 08:27:26 435.465 / 435.565
GONETS M04 25 Sep 08:19:34 08:26:12 25° 75° (ENE) 08:32:51
NOAA 15 25 Sep 08:21:59 08:27:19 74° 290° (WNW) 08:32:36 137.62
Cubesat XI-IV 25 Sep 08:26:58 08:32:20 80° 290° (WNW) 08:37:42 437.490
CUTE-I 25 Sep 08:28:08 08:33:30 78° 290° (WNW) 08:38:52 437.470
PRISM 25 Sep 08:31:52 08:35:38 33° 64° (ENE) 08:39:25 437.425
BRITE-PL 25 Sep 08:32:40 08:37:08 31° 300° (WNW) 08:41:17 437.365/2234.400
GOMX 1 25 Sep 08:37:36 08:42:05 47° 293° (WNW) 08:46:16 467.674
NOAA 18 25 Sep 08:43:18 08:48:47 76° 290° (WNW) 08:54:14 137.9125
CUTE 1.7 + AOD 2 25 Sep 08:44:05 08:47:41 25° 92° (E) 08:51:16 437.475
CANX-2 25 Sep 08:44:36 08:48:22 28° 94° (E) 08:52:07 2200.000
PCSat 25 Sep 08:44:50 08:49:34 30° 332° (NNW) 08:54:20 145.827
STRAND 1 25 Sep 08:47:51 08:52:20 30° 266° (W) 08:56:51 437.568
AO-7 25 Sep 08:48:45 08:54:21 21° 328° (NNW) 08:59:56 29.400- 29.500
Cosmos 2504 25 Sep 08:50:14 08:52:25 11° 321° (NW) 08:54:37 435.465 / 435.565
SEEDS 25 Sep 08:51:25 08:54:46 22° 91° (E) 08:58:06 437.485
BEESAT 2 25 Sep 08:53:28 08:56:31 20° 19° (NNE) 08:59:34 435.950
LilacSat-2 25 Sep 08:54:31 08:57:53 29° 295° (WNW) 09:01:14 437.200
TIGRISAT 25 Sep 09:01:49 09:03:35 12° 52° (NE) 09:05:22 435.000
CUBEBUG 2 25 Sep 09:03:07 09:05:50 16° 89° (E) 09:08:34 437.445
DANDE 25 Sep 09:06:22 09:13:54 43° 271° (W) 09:21:31 436.750
O/OREOS (USA 219) 25 Sep 09:08:00 09:12:32 66° 115° (ESE) 09:17:07 437.305
AIST 2 25 Sep 09:10:23 09:13:17 18° 350° (N) 09:16:13 435.215
CINEMA 3 25 Sep 09:11:04 09:15:10 55° 101° (E) 09:19:16 145.822/145.860
DOVE 4 25 Sep 09:14:31 09:18:40 44° 293° (WNW) 09:22:37 437.250
HO-68 25 Sep 09:15:20 09:22:17 50° 100° (E) 09:29:12 435.675
RS-15 25 Sep 09:19:12 09:24:28 14° 271° (W) 09:29:43 29.354- 29.394
AAUSAT CUBESAT 2 25 Sep 09:22:47 09:26:18 25° 93° (E) 09:29:46 437.432
FUNcube-1 25 Sep 09:24:31 09:26:07 12° 85° (E) 09:27:43 145.935
UWE-3 25 Sep 09:27:23 09:30:30 19° 90° (E) 09:33:39 435.000/436.395/437.385
UNISAT 6 25 Sep 09:39:19 09:42:48 25° 61° (ENE) 09:46:18 437.425
BEESAT 3 25 Sep 09:41:50 09:45:39 42° 36° (NE) 09:49:28 437.485
CUSAT 1 25 Sep 09:50:53 09:53:31 12° 292° (WNW) 09:56:06 437.405
NOAA 15 25 Sep 10:02:56 10:06:17 17° 310° (NW) 10:09:38 137.62
ZACube-1 25 Sep 10:03:15 10:06:57 28° 94° (E) 10:10:41 437.345
COMPASS 1 25 Sep 10:03:36 10:07:52 72° 103° (ESE) 10:12:05 437.405
Oscar 11 25 Sep 10:07:03 10:10:53 29° 94° (E) 10:14:42 145.826/435.025
PRISM 25 Sep 10:07:08 10:10:57 33° 264° (W) 10:14:46 437.425
JAS-2 25 Sep 10:07:39 10:12:17 19° 42° (NE) 10:17:13 435.910
Cubesat XI-IV 25 Sep 10:08:07 10:11:41 18° 309° (NW) 10:15:15 437.490
Cosmos 2499 25 Sep 10:08:12 10:15:17 72° 96° (E) 10:22:20 435.465 / 435.565
CUTE-I 25 Sep 10:09:18 10:12:48 18° 309° (NW) 10:16:18 437.470
POPSAT HIP 1 25 Sep 10:10:42 10:11:08 10° 50° (NE) 10:11:34 437.405
GONETS M04 25 Sep 10:12:57 10:21:49 86° 100° (E) 10:30:44
ANTELSAT 25 Sep 10:14:05 10:18:11 48° 68° (ENE) 10:22:17 437.575/2403.000
CUTE 1.7 + AOD 2 25 Sep 10:19:36 10:23:44 45° 292° (WNW) 10:27:50 437.475
CANX-2 25 Sep 10:20:18 10:24:21 40° 293° (WNW) 10:28:23 2200.000
NOAA 18 25 Sep 10:25:03 10:28:39 18° 311° (NW) 10:32:16 137.9125
SEEDS 25 Sep 10:26:36 10:30:46 52° 290° (WNW) 10:34:55 437.485
NANOSAT C BR1 25 Sep 10:27:17 10:29:21 14° 54° (NE) 10:31:25 145.865
PCSat 25 Sep 10:30:51 10:34:40 19° 357° (N) 10:38:31 145.827
BEESAT 2 25 Sep 10:31:07 10:35:06 58° 41° (NE) 10:39:05 435.950
TIGRISAT 25 Sep 10:35:19 10:39:33 71° 72° (ENE) 10:43:49 435.000
CUBEBUG 2 25 Sep 10:38:44 10:42:56 69° 288° (WNW) 10:47:12 437.445
AO-7 25 Sep 10:41:17 10:44:05 12° 355° (N) 10:46:51 29.400- 29.500
QB50P2 25 Sep 10:46:31 10:49:40 21° 59° (ENE) 10:52:49 145.880/145.840
O/OREOS (USA 219) 25 Sep 10:48:33 10:52:22 25° 317° (NW) 10:56:14 437.305
POLYITAN 1 25 Sep 10:48:47 10:51:55 21° 59° (ENE) 10:55:03 437.675
CINEMA 3 25 Sep 10:48:53 10:52:02 21° 300° (WNW) 10:55:10 145.822/145.860
AIST 2 25 Sep 10:50:07 10:53:10 19° 14° (NNE) 10:56:14 435.215
HUMSAT D 25 Sep 10:50:08 10:53:13 19° 90° (E) 10:56:19 437.325/437.525
DANDE 25 Sep 10:52:43 10:54:44 11° 292° (WNW) 10:56:46 436.750
AAUSAT CUBESAT 2 25 Sep 10:57:57 11:01:58 44° 292° (WNW) 11:05:58 437.432
FUNcube-1 25 Sep 10:58:46 11:03:02 83° 102° (ESE) 11:07:24 145.935
UWE-3 25 Sep 11:03:09 11:07:20 59° 289° (WNW) 11:11:35 435.000/436.395/437.385
HO-68 25 Sep 11:03:16 11:10:01 46° 301° (WNW) 11:16:45 435.675
DELFI C3 25 Sep 11:07:59 11:11:56 48° 99° (E) 11:15:50 145.870
UNISAT 6 25 Sep 11:15:12 11:19:20 47° 261° (W) 11:23:29 437.425
BEESAT 3 25 Sep 11:19:37 11:23:17 36° 237° (WSW) 11:26:56 437.485
QB50P1 25 Sep 11:28:51 11:32:50 43° 67° (ENE) 11:36:50 145.935-145.965
DUCHIFAT 1 25 Sep 11:30:05 11:33:59 40° 66° (ENE) 11:37:55 145.980
ZACube-1 25 Sep 11:39:22 11:43:22 41° 293° (WNW) 11:47:27 437.345
COMPASS 1 25 Sep 11:40:05 11:42:58 18° 302° (WNW) 11:45:50 437.405
POPSAT HIP 1 25 Sep 11:41:56 11:46:03 56° 70° (ENE) 11:50:10 437.405
Oscar 11 25 Sep 11:43:03 11:47:08 40° 293° (WNW) 11:51:13 145.826/435.025
BUGSAT 1 25 Sep 11:45:02 11:48:30 27° 63° (ENE) 11:51:56 437.445
JAS-2 25 Sep 11:49:22 11:55:51 60° 65° (ENE) 12:03:09 435.910
ANTELSAT 25 Sep 11:51:43 11:55:10 23° 268° (W) 11:58:37 437.575/2403.000
NANOSAT C BR1 25 Sep 12:00:14 12:04:25 80° 74° (ENE) 12:08:38 145.865
YUBILEINY 25 Sep 12:01:26 12:05:32 14° 34° (NE) 12:09:38 435.215
Cosmos 2499 25 Sep 12:03:04 12:09:07 29° 300° (WNW) 12:15:13 435.465 / 435.565
BEESAT 2 25 Sep 12:09:21 12:12:40 25° 241° (WSW) 12:15:57 435.950
GONETS M04 25 Sep 12:12:15 12:19:50 31° 304° (NW) 12:27:29
TIGRISAT 25 Sep 12:14:06 12:16:46 16° 271° (W) 12:19:26 435.000
PCSat 25 Sep 12:15:23 12:19:54 26° 23° (NNE) 12:24:25 145.827
CUBEBUG 2 25 Sep 12:17:15 12:18:51 12° 307° (NW) 12:20:27 437.445
ESTCUBE 1 25 Sep 12:18:49 12:22:42 27° 93° (E) 12:26:33 437.505/2401.250
QB50P2 25 Sep 12:20:58 12:25:08 60° 259° (W) 12:29:20 145.880/145.840
POLYITAN 1 25 Sep 12:23:14 12:27:23 59° 258° (WSW) 12:31:33 437.675
HUMSAT D 25 Sep 12:25:02 12:29:12 59° 289° (WNW) 12:33:23 437.325/437.525
AIST 2 25 Sep 12:28:33 12:32:36 45° 37° (NE) 12:36:39 435.215
AO-7 25 Sep 12:29:03 12:33:34 16° 23° (NNE) 12:38:05 29.400- 29.500
VELOX 1 25 Sep 12:30:56 12:34:03 19° 90° (E) 12:37:09 145.980
Oscar 19 25 Sep 12:31:53 12:36:04 25° 57° (ENE) 12:40:16 437.125/150
DX 1 25 Sep 12:33:22 12:35:24 13° 87° (E) 12:37:25 434.975-435.025
FUNcube-1 25 Sep 12:36:08 12:38:47 16° 303° (WNW) 12:41:28 145.935
UWE-3 25 Sep 12:42:08 12:42:59 11° 309° (NW) 12:43:51 435.000/436.395/437.385
CUBEBUG 1 25 Sep 12:42:15 12:46:04 28° 94° (E) 12:49:50 437.445
DELFI C3 25 Sep 12:43:19 12:46:32 23° 299° (WNW) 12:49:43 145.870
HO-68 25 Sep 12:52:11 12:56:09 16° 325° (NW) 13:00:07 435.675
QB50P1 25 Sep 13:05:16 13:08:48 25° 267° (W) 13:12:20 145.935-145.965
DUCHIFAT 1 25 Sep 13:06:13 13:09:49 27° 266° (W) 13:13:25 145.980
Gurwin Techsat 1B 25 Sep 13:06:50 13:11:10 26° 57° (ENE) 13:15:30 435.225
POPSAT HIP 1 25 Sep 13:19:04 13:22:11 20° 269° (W) 13:25:18 437.405
BUGSAT 1 25 Sep 13:19:51 13:23:46 40° 262° (W) 13:27:38 437.445
ITAMSAT 1 25 Sep 13:21:02 13:23:31 14° 46° (NE) 13:25:59 435.822/435.867
AISAT 25 Sep 13:22:38 13:26:59 54° 101° (E) 13:31:17 437.250
50 SAT 25 Sep 13:28:05 13:31:45 59° 102° (ESE) 13:35:23 437.505
AUBIESAT-1 25 Sep 13:33:52 13:36:41 25° 101° (ESE) 13:39:29 437.475
TISAT 1 25 Sep 13:34:09 13:34:28 10° 84° (E) 13:34:49 437.305
JAS-2 25 Sep 13:35:17 13:41:18 37° 269° (W) 13:48:01 435.910
SPROUT 25 Sep 13:36:21 13:40:26 42° 98° (E) 13:44:28 437.525
NANOSAT C BR1 25 Sep 13:38:27 13:40:43 14° 272° (W) 13:43:01 145.865
UKube-1 25 Sep 13:44:45 13:48:55 44° 99° (E) 13:53:02 .
ESTCUBE 1 25 Sep 13:55:21 13:59:43 47° 293° (WNW) 14:04:04 437.505/2401.250
YUBILEINY 25 Sep 13:57:20 14:05:30 41° 63° (ENE) 14:13:36 435.215
PCSat 25 Sep 13:58:47 14:04:14 70° 47° (NE) 14:09:39 145.827
HUMSAT D 25 Sep 14:03:06 14:03:59 11° 309° (NW) 14:04:54 437.325/437.525
Cosmos 2491 25 Sep 14:03:57 14:09:03 17° 69° (ENE) 14:14:10 435.465 / 435.565
VELOX 1 25 Sep 14:06:34 14:10:59 66° 289° (WNW) 14:15:20 145.980
AIST 2 25 Sep 14:07:11 14:11:03 36° 237° (WSW) 14:14:55 435.215
DX 1 25 Sep 14:07:53 14:12:16 88° 105° (ESE) 14:16:37 434.975-435.025
M-CUBED/EXP-1 PRIME 25 Sep 14:08:28 14:11:51 75° 110° (ESE) 14:15:06 437.505
Oscar 19 25 Sep 14:09:49 14:15:00 68° 257° (WSW) 14:20:13 437.125/150
AO-7 25 Sep 14:16:46 14:24:07 37° 48° (NE) 14:31:29 29.400- 29.500
CUBEBUG 1 25 Sep 14:18:22 14:22:29 41° 294° (WNW) 14:26:33 437.445
GONETS M04 25 Sep 14:18:34 14:20:39 11° 335° (NNW) 14:22:43
BEESAT 25 Sep 14:34:20 14:35:00 10° 83° (E) 14:35:39 436.000
Cosmos 2504 25 Sep 14:39:44 14:45:56 29° 60° (ENE) 14:52:22 435.465 / 435.565
Gurwin Techsat 1B 25 Sep 14:45:27 14:50:44 67° 257° (WSW) 14:56:05 435.225
ITAMSAT 1 25 Sep 14:56:56 15:01:59 57° 67° (ENE) 15:07:05 435.822/435.867
AISAT 25 Sep 14:59:38 15:03:11 24° 301° (WNW) 15:06:42 437.250
50 SAT 25 Sep 15:02:27 15:04:54 17° 301° (WNW) 15:07:20 437.505
TISAT 1 25 Sep 15:06:43 15:10:54 75° 103° (ESE) 15:15:04 437.305
AUBIESAT-1 25 Sep 15:08:15 15:11:15 30° 301° (WNW) 15:14:11 437.475
SPROUT 25 Sep 15:12:36 15:16:14 27° 298° (WNW) 15:19:50 437.525
UKube-1 25 Sep 15:21:08 15:24:48 28° 299° (WNW) 15:28:28 .
ITUPSAT 1 25 Sep 15:41:11 15:45:40 37° 97° (E) 15:50:08 437.325
PCSat 25 Sep 15:42:42 15:47:15 28° 248° (WSW) 15:51:46 145.827
M-CUBED/EXP-1 PRIME 25 Sep 15:44:16 15:45:56 13° 311° (NW) 15:47:35 437.505
VELOX 1 25 Sep 15:44:48 15:46:38 12° 309° (NW) 15:48:28 145.980
DX 1 25 Sep 15:45:12 15:47:53 16° 306° (NW) 15:50:33 434.975-435.025
SO-50 25 Sep 15:53:08 15:55:18 13° 110° (ESE) 15:57:28 436.795
Oscar 19 25 Sep 15:53:20 15:55:21 12° 277° (W) 15:57:21 437.125/150
O/OREOS (USA 219) 25 Sep 15:53:59 15:56:54 16° 34° (NNE) 15:59:47 437.305
HORYU 2 25 Sep 15:56:57 15:59:29 15° 53° (NE) 16:02:01 437.375
